When you browse on this site, cookies collect data to enhance your experience and personalize the content and advertising you see.
Visit our Privacy Policy to learn more. By continuing to use the site, you agree to this use of cookies and data.
EN

Hourly Weather Pecheniya

Today, 5 August, Wednesday

Time Temperature Precipitation Wind Pressure Humidity
00:00 +20°C° 0.2 mm 1 mps 736 mmHg 90%
01:00 +20°C° 0.2 mm 1 mps 736 mmHg 91%
02:00 +19°C° 0 mm 1 mps 737 mmHg 90%
03:00 +18°C° 0.2 mm 2 mps 737 mmHg 92%
04:00 +18°C° 0.2 mm 2 mps 737 mmHg 93%
05:00 +18°C° 0.2 mm 2 mps 738 mmHg 94%
06:00 +18°C° 0.5 mm 3 mps 738 mmHg 95%
07:00 +19°C° 0.5 mm 3 mps 738 mmHg 95%
08:00 +19°C° 0.5 mm 3 mps 738 mmHg 95%
09:00 +20°C° 0.2 mm 3 mps 739 mmHg 93%
10:00 +20°C° 0.2 mm 3 mps 739 mmHg 91%
11:00 +21°C° 0.2 mm 3 mps 740 mmHg 88%
12:00 +22°C° 0.1 mm 3 mps 740 mmHg 84%
13:00 +24°C° 0.1 mm 3 mps 740 mmHg 80%
14:00 +25°C° 0.1 mm 3 mps 740 mmHg 76%
15:00 +25°C° 0 mm 3 mps 740 mmHg 75%
16:00 +26°C° 0 mm 3 mps 740 mmHg 73%
17:00 +26°C° 0 mm 3 mps 740 mmHg 72%
18:00 +25°C° 0 mm 3 mps 740 mmHg 77%
19:00 +22°C° 0 mm 3 mps 740 mmHg 83%
20:00 +21°C° 0 mm 3 mps 740 mmHg 88%
21:00 +20°C° 0 mm 3 mps 741 mmHg 89%
22:00 +19°C° 0 mm 3 mps 741 mmHg 90%
23:00 +19°C° 0 mm 2 mps 741 mmHg 92%

Tomorrow, 6 August, Thursday

Time Temperature Precipitation Wind Pressure Humidity
00:00 +18°C° 0 mm 2 mps 741 mmHg 91%
01:00 +18°C° 0 mm 2 mps 741 mmHg 90%
02:00 +17°C° 0 mm 2 mps 741 mmHg 90%
03:00 +17°C° 0 mm 2 mps 741 mmHg 89%
04:00 +17°C° 0 mm 2 mps 741 mmHg 89%
05:00 +16°C° 0 mm 2 mps 741 mmHg 89%
06:00 +18°C° 0 mm 2 mps 742 mmHg 85%
07:00 +19°C° 0 mm 2 mps 742 mmHg 81%
08:00 +21°C° 0 mm 2 mps 743 mmHg 77%
09:00 +24°C° 0 mm 2 mps 743 mmHg 72%
10:00 +25°C° 0 mm 2 mps 743 mmHg 68%
11:00 +27°C° 0 mm 2 mps 743 mmHg 63%
12:00 +28°C° 0 mm 2 mps 743 mmHg 60%
13:00 +29°C° 0 mm 3 mps 743 mmHg 57%
14:00 +29°C° 0 mm 3 mps 743 mmHg 54%
15:00 +29°C° 0 mm 3 mps 743 mmHg 57%
16:00 +29°C° 0 mm 3 mps 743 mmHg 61%
17:00 +29°C° 0 mm 3 mps 743 mmHg 64%
18:00 +27°C° 0 mm 3 mps 743 mmHg 68%
19:00 +25°C° 0 mm 3 mps 743 mmHg 71%
20:00 +24°C° 0 mm 3 mps 743 mmHg 75%
21:00 +23°C° 0 mm 2 mps 743 mmHg 76%
22:00 +21°C° 0 mm 2 mps 744 mmHg 77%
23:00 +20°C° 0 mm 2 mps 744 mmHg 78%

Day after tomorrow, 7 August, Friday

Time Temperature Precipitation Wind Pressure Humidity
00:00 +20°C° 0 mm 2 mps 744 mmHg 80%
01:00 +19°C° 0 mm 2 mps 744 mmHg 82%
02:00 +20°C° 0 mm 1 mps 744 mmHg 83%
03:00 +19°C° 0 mm 1 mps 744 mmHg 85%
04:00 +19°C° 0 mm 1 mps 744 mmHg 87%
05:00 +19°C° 0 mm 1 mps 744 mmHg 88%
06:00 +20°C° 0 mm 1 mps 744 mmHg 85%
07:00 +22°C° 0 mm 1 mps 745 mmHg 81%
08:00 +23°C° 0 mm 2 mps 745 mmHg 77%
09:00 +25°C° 0 mm 2 mps 745 mmHg 73%
10:00 +26°C° 0 mm 3 mps 745 mmHg 68%
11:00 +27°C° 0 mm 3 mps 745 mmHg 63%
12:00 +28°C° 0 mm 3 mps 745 mmHg 61%
13:00 +28°C° 0 mm 3 mps 745 mmHg 60%
14:00 +29°C° 0 mm 3 mps 744 mmHg 58%
15:00 +29°C° 0 mm 3 mps 744 mmHg 60%
16:00 +28°C° 0 mm 3 mps 744 mmHg 63%
17:00 +28°C° 0 mm 3 mps 744 mmHg 65%
18:00 +26°C° 0 mm 3 mps 744 mmHg 72%
19:00 +25°C° 0 mm 3 mps 744 mmHg 79%
20:00 +22°C° 0 mm 3 mps 744 mmHg 86%
21:00 +21°C° 0 mm 3 mps 744 mmHg 88%
22:00 +20°C° 0 mm 3 mps 744 mmHg 89%
23:00 +20°C° 0 mm 3 mps 744 mmHg 91%

8 August, Saturday

Time Temperature Precipitation Wind Pressure Humidity
00:00 +19°C° 0 mm 3 mps 744 mmHg 90%
01:00 +19°C° 0 mm 2 mps 744 mmHg 90%
02:00 +18°C° 0 mm 2 mps 744 mmHg 90%
03:00 +18°C° 0 mm 2 mps 744 mmHg 90%
04:00 +17°C° 0 mm 2 mps 744 mmHg 90%
05:00 +17°C° 0 mm 2 mps 744 mmHg 89%
06:00 +18°C° 0 mm 2 mps 744 mmHg 86%
07:00 +20°C° 0 mm 2 mps 744 mmHg 82%
08:00 +21°C° 0 mm 3 mps 744 mmHg 78%
09:00 +22°C° 0 mm 3 mps 744 mmHg 73%
10:00 +24°C° 0 mm 3 mps 744 mmHg 69%
11:00 +25°C° 0 mm 3 mps 744 mmHg 65%
12:00 +26°C° 0 mm 3 mps 744 mmHg 63%
13:00 +27°C° 0 mm 3 mps 743 mmHg 61%
14:00 +27°C° 0 mm 3 mps 743 mmHg 59%
15:00 +27°C° 0 mm 3 mps 743 mmHg 60%
16:00 +27°C° 0 mm 3 mps 743 mmHg 62%
17:00 +27°C° 0 mm 3 mps 742 mmHg 64%
18:00 +25°C° 0 mm 3 mps 742 mmHg 70%
19:00 +22°C° 0 mm 3 mps 742 mmHg 76%
20:00 +21°C° 0 mm 2 mps 742 mmHg 82%
21:00 +20°C° 0 mm 2 mps 742 mmHg 83%
22:00 +19°C° 0 mm 2 mps 742 mmHg 84%
23:00 +19°C° 0 mm 2 mps 742 mmHg 85%

9 August, Sunday

Time Temperature Precipitation Wind Pressure Humidity
00:00 +18°C° 0 mm 2 mps 742 mmHg 86%
01:00 +19°C° 0 mm 1 mps 742 mmHg 87%
02:00 +18°C° 0 mm 1 mps 742 mmHg 88%
03:00 +18°C° 0 mm 1 mps 741 mmHg 89%
04:00 +18°C° 0 mm 1 mps 741 mmHg 89%
05:00 +16°C° 0 mm 0 mps 741 mmHg 90%
06:00 +19°C° 0 mm 1 mps 741 mmHg 86%
07:00 +21°C° 0 mm 1 mps 741 mmHg 82%
08:00 +22°C° 0 mm 1 mps 741 mmHg 77%
09:00 +24°C° 0 mm 1 mps 741 mmHg 73%
10:00 +25°C° 0 mm 1 mps 741 mmHg 68%
11:00 +26°C° 0 mm 1 mps 741 mmHg 64%
12:00 +27°C° 0 mm 1 mps 741 mmHg 61%
13:00 +27°C° 0 mm 1 mps 740 mmHg 58%
14:00 +28°C° 0 mm 1 mps 740 mmHg 56%
15:00 +27°C° 0.2 mm 2 mps 740 mmHg 58%
16:00 +27°C° 0.2 mm 2 mps 740 mmHg 61%
17:00 +27°C° 0.2 mm 2 mps 739 mmHg 64%
18:00 +25°C° 0.4 mm 2 mps 739 mmHg 71%
19:00 +23°C° 0.4 mm 2 mps 739 mmHg 78%
20:00 +20°C° 0.4 mm 2 mps 739 mmHg 85%
21:00 +20°C° 0.2 mm 2 mps 739 mmHg 86%
22:00 +20°C° 0.2 mm 1 mps 739 mmHg 88%
23:00 +19°C° 0.2 mm 1 mps 739 mmHg 89%

10 August, Monday

Time Temperature Precipitation Wind Pressure Humidity
00:00 +19°C° 0.1 mm 1 mps 739 mmHg 90%
01:00 +19°C° 0.1 mm 1 mps 739 mmHg 90%
02:00 +19°C° 0.1 mm 1 mps 739 mmHg 91%
03:00 +18°C° 0.7 mm 1 mps 739 mmHg 92%
04:00 +18°C° 0.7 mm 1 mps 739 mmHg 93%
05:00 +18°C° 0.7 mm 1 mps 739 mmHg 95%
06:00 +19°C° 0 mm 1 mps 739 mmHg 92%
07:00 +20°C° 0 mm 1 mps 739 mmHg 90%
08:00 +20°C° 0 mm 2 mps 740 mmHg 87%
09:00 +21°C° 0.9 mm 2 mps 740 mmHg 83%
10:00 +24°C° 0.9 mm 3 mps 740 mmHg 79%
11:00 +25°C° 0.9 mm 3 mps 740 mmHg 75%
12:00 +25°C° 0.6 mm 3 mps 740 mmHg 72%
13:00 +26°C° 0.6 mm 3 mps 740 mmHg 69%
14:00 +26°C° 0.6 mm 3 mps 740 mmHg 67%
15:00 +26°C° 0.6 mm 3 mps 739 mmHg 69%
16:00 +25°C° 0.6 mm 3 mps 739 mmHg 72%
17:00 +25°C° 0.6 mm 4 mps 739 mmHg 75%
18:00 +24°C° 0.2 mm 3 mps 739 mmHg 79%
19:00 +21°C° 0.2 mm 3 mps 740 mmHg 83%
20:00 +19°C° 0.2 mm 3 mps 740 mmHg 87%
21:00 +19°C° 0 mm 2 mps 740 mmHg 87%
22:00 +18°C° 0 mm 2 mps 740 mmHg 87%
23:00 +18°C° 0 mm 2 mps 740 mmHg 87%
Show more